Regional Weather Roundup
Issued by NWS

Home | Current Version | Previous Version | Text Only | Print | Product List | Glossary Off
Versions: 1 2 3 4 5 6 7 8 9 10 11 12 13 14 15 16 17 18 19 20 21 22 23 24 25 26 27 28 29 30 31 32 33 34 35 36 37 38 39 40 41 42 43 44 45 46 47 48 49 50

497
ASUS43 KBIS 302002
RWRND

NORTH DAKOTA REGIONAL WEATHER ROUNDUP
NATIONAL WEATHER SERVICE BISMARCK ND
300 PM CDT SAT JUL 30 2016

NOTE: "FAIR" INDICATES FEW OR NO CLOUDS BELOW 12,000 FEET WITH NO
SIGNIFICANT WEATHER AND/OR OBSTRUCTIONS TO VISIBILITY.


NDZ001>003-009>011-017-302100-
NORTHWEST NORTH DAKOTA

CITY           SKY/WX    TMP DP  RH WIND       PRES   REMARKS
WILLISTON      SUNNY     87  50  27 S9        29.82F
MINOT          MOSUNNY   84  60  44 NE5       29.84F
MINOT AFB      MOSUNNY   82  59  44 SE9       29.82F
$$

NDZ018>021-031>035-040>046-302100-
SOUTHWEST NORTH DAKOTA

CITY           SKY/WX    TMP DP  RH WIND       PRES   REMARKS
BISMARCK       MOSUNNY   84  66  54 S14G22    29.85F
DICKINSON      SUNNY     83  51  33 VRB7      29.84F
GARRISON         N/A     81  64  56 CALM      29.85F
HETTINGER ARPT PTSUNNY   91  55  29 SE10G17   29.86F
$$

NDZ004>008-012>016-024-026-027-054-302100-
NORTHEAST NORTH DAKOTA

CITY           SKY/WX    TMP DP  RH WIND       PRES   REMARKS
GRAND FORKS    PTSUNNY   80  60  50 S17       29.91F
GRND FRKS AFB  CLOUDY    79  62  56 S20       29.92F
DEVILS LAKE    CLOUDY    78  64  61 S12       29.90F
$$

NDZ022-023-025-028>030-036>039-047>053-302100-
SOUTHEAST NORTH DAKOTA

CITY           SKY/WX    TMP DP  RH WIND       PRES   REMARKS
FARGO          SUNNY     81  60  48 S16G24    29.94F
JAMESTOWN      CLOUDY    77  63  61 SE10      29.91F
$$





USA.gov is the U.S. government's official web portal to all federal, state and local government web resources and services.